Miscellaneous Local Product
Issued by NWS North Platte, NE

Home | Current Version | Previous Version | Text Only | Print | Product List | Glossary On
Versions: 1 2 3 4 5 6 7 8 9 10 11 12 13 14 15 16 17 18 19 20 21 22 23 24 25 26 27 28 29 30 31 32 33 34 35 36 37 38 39 40 41 42 43 44 45 46 47 48 49 50
000
AXUS43 KLBF 270410
MISLBF


WESTERN AND NORTH CENTRAL NEBRASKA HOURLY WEATHER ROUNDUP
NATIONAL WEATHER SERVICE NORTH PLATTE NE
1100 PM CDT TUE AUG 26 2014

***STATIONS NOT REPORTING VARIABLES SUCH AS SKY/WEATHER OR
PRESSURE ARE PROVIDED BY THE NEBRASKA DEPARTMENT OF
ROADS...RAWS...AND APRS NETWORKS...AND ARE NOT UNDER
NATIONAL WEATHER SERVICE QUALITY CONTROL***

...OBSERVATIONS IN AND NEAR THE EASTERN PANHANDLE OF NEBRASKA...

CITY           SKY/WX    TMP DP  RH WIND       PRES   REMARKS
PINE RIDGE     CLOUDY    57  57 100 MISG      30.14S FOG
CHADRON        CLOUDY    68  63  84 E5        30.13R
ALLIANCE       CLOUDY    70  62  76 SE8       30.15F
SIDNEY         MOCLDY    69  62  78 SE13      30.18S
WHITECLAY        N/A     63  61  93 CALM        N/A
RUSHVILLE        N/A     67  64  90 NW8         N/A
GORDON           N/A     74  64  71 S10         N/A
CRESCENT LAKE    N/A     67  60  79 E6          N/A
LISCO            N/A     75  64  67 E12         N/A
BIG SPRINGS      N/A     68  64  86 CALM        N/A
$$

...OBSERVATIONS IN NORTH CENTRAL NEBRASKA...

CITY           SKY/WX    TMP DP  RH WIND       PRES   REMARKS
VALENTINE      MOCLDY    71  63  75 S12       30.12R
THEDFORD       MOCLDY    70  63  79 SE8       30.16S
AINSWORTH      MOCLDY    66  64  91 SE9       30.13F
O`NEILL        PTCLDY    67  65  93 SE8       30.16S
ORD            CLOUDY    67  65  93 E3        30.15R
BROKEN BOW     PTCLDY    69  67  93 E7        30.15R
BROWNLEE         N/A     71  63  75 SE10        N/A
SPRINGVIEW       N/A     66  62  86 NE3         N/A
ROSE             N/A     69  68  99 E6          N/A
NEWPORT          N/A     66  65  94 SE8         N/A
SARGENT          N/A     67  65  94 CALM        N/A
COMSTOCK         N/A     73  72  94 E6          N/A
CHAMBERS         N/A     67  65  92 E3          N/A
$$

...OBSERVATIONS IN SOUTHWEST NEBRASKA AND FAR NORTHEAST COLORADO...

CITY           SKY/WX    TMP DP  RH WIND       PRES   REMARKS
WRAY             N/A     72  61  68 S9        30.15S
HOLYOKE        FAIR      68  63  83 E8        30.17R
IMPERIAL       CLOUDY    70  65  84 E6        30.14R
OGALLALA       MOCLDY    66  62  86 E5        30.16R
NORTH PLATTE   MOCLDY    67  65  93 E6        30.15R
MCCOOK         CLOUDY    72  68  87 E8        30.11R
LEXINGTON      MOCLDY    72  69  90 E9        30.13R
PAXTON           N/A     67  63  86 CALM        N/A
SUTHERLAND       N/A     69  65  89 CALM        N/A
BRADY            N/A     68  64  88 CALM        N/A
GOTHENBURG       N/A     70  63  79 E3          N/A
CALLAWAY         N/A     68  66  94 E5          N/A
$$

...SOME WEATHER OBSERVATIONS FROM AROUND THE REGION...

CITY           SKY/WX    TMP DP  RH WIND       PRES   REMARKS
DENVER         CLOUDY    64  55  72 SW10      30.22F
LARAMIE        MOCLDY    58  45  62 SE3       30.31R
CHEYENNE       MOCLDY    59  51  75 E7        30.26R
SCOTTSBLUFF    MOCLDY    66  61  84 NE7       30.12F
RAPID CITY     PTCLDY    63  55  75 SE8       30.16R
PIERRE         PTCLDY    59  55  87 NE12      30.14R
WINNER         FAIR      66  58  75 E9        30.12S
SIOUX FALLS    MOCLDY    65  56  72 SE6       30.18R
OMAHA          MOCLDY    72  65  78 E6        30.12S
GRAND ISLAND   PTCLDY    69  67  93 E7        30.14R
KANSAS CITY    CLOUDY    80  71  74 E12       30.09R
WICHITA        CLOUDY    80  69  69 E6        30.06S
HAYS           PTCLDY    73  64  73 E7        30.10R
LIBERAL        CLOUDY    72  61  68 W9        30.18R
GOODLAND       TSTM      65  62  90 S18G24    30.20R
$$



USA.gov is the U.S. government's official web portal to all federal, state and local government web resources and services.